Tracking 26308 objects as of 30-Nov-2022
HD Live streaming from Space Station
objects crossing your sky now

SL-14 R/B

Track SL-14 R/B now!
10-day predictions


NORAD ID: 13590
Int'l Code: 1982-096B
Perigee: 1,498.2 km
Apogee: 1,506.6 km
Inclination: 82.6 °
Period: 115.9 minutes
Semi major axis: 7873 km
RCS: 3.9481 m2 (large)
Launch date: September 24, 1982
Source: Commonwealth of Independent States (former USSR) (CIS)
Launch site: PLESETSK MISSILE AND SPACE COMPLEX (PKMTR)

Note: This is a ROCKET BODY
aabbcc
Your satellite tracking list
Your tracking list is empty




NASA's NSSDC Master Catalog

Two Line Element Set (TLE):
1 13590U 82096B   22334.14211428  .00000000  00000-0 -70824-4 0  9996
2 13590  82.6088 177.7993 0005324 257.1797 258.1196 12.42673731822906
Source of the keplerian elements: AFSPC